Rhodes, Greece

6:47 AM EEST on August 21, 2017 (GMT +0300)
Diagoras

Weather History for LGRP - September, 2012

Change the Weather History Date:

Saturday, September 15, 2012

  Actual Average Record
Temperature  
Mean Temperature 76 °F -  
Max Temperature 83 °F 80 °F 91 °F (2008)
Min Temperature 68 °F 66 °F 68 °F (2012)
Cooling Degree Days 10    
Growing Degree Days 26 (Base 50)    
Moisture  
Dew Point 67 °F    
Average Humidity 71    
Maximum Humidity 88    
Minimum Humidity 56    
Precipitation  
Precipitation 0.00 in 0.05 in - ()
Sea Level Pressure  
Sea Level Pressure 29.81 in    
Wind  
Wind Speed 4 mph ()    
Max Wind Speed 10 mph    
Max Gust Speed -    
Visibility 6.1 miles    
Events      
Averages and records for this station are not official NWS values.
T = Trace of Precipitation, MM = Missing Value Source: Averaged Metar Reports

Daily Weather History Graph

Daily Weather History Graph

Search for Another Location

Airport or City:

Trip Planner

Search our weather history database for the weather conditions in past years. The results will help you decide how hot, cold, wet, or windy it might be!

Date:

Astronomy

Sep. 15, 2012 Rise Set
Actual Time 6:50 AM EEST 7:14 PM EEST
Civil Twilight 6:24 AM EEST 7:40 PM EEST
Nautical Twilight 5:54 AM EEST 8:10 PM EEST
Astronomical Twilight 5:23 AM EEST 8:41 PM EEST
Moon 5:59 AM EEST (9/15) 6:35 PM EEST (9/15)
Length of Visible Light 13h 16m
Length of Day
12h 24m
Waning Crescent, 1% of the Moon is Illuminated
Sep 15
Waning Crescent
Sep 16
New
Sep 22
First Quarter
Sep 30
Full
Oct 8
Last Quarter

Hourly Weather History & Observations

Time (EEST) Temp. Heat Index Dew Point Humidity Pressure Visibility Wind Dir Wind Speed Gust Speed Precip Events Conditions
12:20 AM 73.4 °F - 68.0 °F 83% 29.89 in 6.2 mi SW 6.9 mph - N/A   Partly Cloudy
12:50 AM 73.4 °F - 68.0 °F 83% 29.89 in 6.2 mi SW 5.8 mph - N/A   Partly Cloudy
1:20 AM 73.4 °F - 68.0 °F 83% 29.89 in 6.2 mi SSW 8.1 mph - N/A   Partly Cloudy
1:50 AM 75.2 °F - 69.8 °F 83% 29.89 in 6.2 mi SSW 4.6 mph - N/A   Partly Cloudy
2:20 AM 75.2 °F - 69.8 °F 83% 29.86 in 6.2 mi Variable 3.5 mph - N/A   Partly Cloudy
3:00 AM 73 °F - 69 °F 85% 29.88 in 6 mi SSW 2.3 mph - -   Scattered Clouds
3:20 AM 73.4 °F - 69.8 °F 88% 29.86 in 6.2 mi Variable 3.5 mph - N/A   Partly Cloudy
3:50 AM 73.4 °F - 69.8 °F 88% 29.86 in 6.2 mi Variable 3.5 mph - N/A   Partly Cloudy
4:20 AM 73.4 °F - 69.8 °F 88% 29.86 in 6.2 mi Variable 3.5 mph - N/A   Partly Cloudy
4:50 AM 69.8 °F - 64.4 °F 83% 29.83 in 6.2 mi Variable 3.5 mph - N/A   Partly Cloudy
5:20 AM 69.8 °F - 64.4 °F 83% 29.83 in 6.2 mi Variable 1.2 mph - N/A   Partly Cloudy
5:50 AM 68.0 °F - 64.4 °F 88% 29.83 in 6.2 mi Variable 1.2 mph - N/A   Partly Cloudy
6:20 AM 68.0 °F - 64.4 °F 88% 29.83 in - Calm Calm - N/A   Clear
6:50 AM 68.0 °F - 62.6 °F 83% 29.83 in - Calm Calm - N/A   Clear
7:20 AM 68.0 °F - 62.6 °F 83% 29.83 in - Variable 3.5 mph - N/A   Clear
7:50 AM 71.6 °F - 60.8 °F 69% 29.83 in - Calm Calm - N/A   Clear
8:20 AM 73.4 °F - 60.8 °F 65% 29.83 in - Calm Calm - N/A   Clear
8:50 AM 73.4 °F - 64.4 °F 73% 29.83 in - Calm Calm - N/A   Clear
9:00 AM 74 °F - 64 °F 65% 29.85 in 6 mi Calm Calm - -  
9:20 AM 77.0 °F - 68.0 °F 74% 29.83 in - Variable 2.3 mph - N/A   Clear
9:50 AM 78.8 °F - 68.0 °F 69% 29.83 in - Variable 3.5 mph - N/A   Clear
10:20 AM 78.8 °F - 68.0 °F 69% 29.83 in - Variable 3.5 mph - N/A   Clear
10:50 AM 78.8 °F - 66.2 °F 65% 29.83 in - Variable 3.5 mph - N/A   Clear
11:20 AM 78.8 °F - 66.2 °F 65% 29.83 in - NW 4.6 mph - N/A   Clear
11:50 AM 82.4 °F 84.6 °F 66.2 °F 58% 29.83 in - Variable 3.5 mph - N/A   Clear
12:20 PM 82.4 °F 84.6 °F 66.2 °F 58% 29.83 in - NW 4.6 mph - N/A   Clear
12:50 PM 82.4 °F 85.4 °F 68.0 °F 62% 29.83 in - WNW 4.6 mph - N/A   Clear
1:20 PM 82.4 °F 85.4 °F 68.0 °F 62% 29.83 in - WNW 4.6 mph - N/A   Clear
1:50 PM 82.4 °F 85.4 °F 68.0 °F 62% 29.80 in - West 5.8 mph - N/A   Clear
2:20 PM 82.4 °F 85.4 °F 68.0 °F 62% 29.80 in - West 5.8 mph - N/A   Clear
2:50 PM 82.4 °F 86.3 °F 69.8 °F 66% 29.80 in - West 9.2 mph - N/A   Clear
3:00 PM 83 °F - 70 °F 57% 29.80 in 6 mi West 9.2 mph - -  
3:20 PM 82.4 °F 86.3 °F 69.8 °F 66% 29.80 in - West 9.2 mph - N/A   Clear
3:50 PM 84.2 °F 89.6 °F 71.6 °F 66% 29.77 in - West 10.4 mph - N/A   Clear
4:20 PM 84.2 °F 89.6 °F 71.6 °F 66% 29.77 in - West 10.4 mph - N/A   Clear
4:50 PM 82.4 °F 89.5 °F 75.2 °F 79% 29.77 in - WSW 10.4 mph - N/A   Clear
5:20 PM 82.4 °F 89.5 °F 75.2 °F 79% 29.77 in - WSW 10.4 mph - N/A   Clear
5:50 PM 82.4 °F 84.6 °F 66.2 °F 58% 29.74 in - WSW 8.1 mph - N/A   Clear
6:20 PM 82.4 °F 84.6 °F 66.2 °F 58% 29.74 in - WSW 8.1 mph - N/A   Clear
6:50 PM 82.4 °F 84.6 °F 66.2 °F 58% 29.74 in - West 4.6 mph - N/A   Clear
7:20 PM 82.4 °F 84.6 °F 66.2 °F 58% 29.74 in - West 4.6 mph - N/A   Clear
7:50 PM 78.8 °F - 68.0 °F 69% 29.74 in - South 3.5 mph - N/A   Clear
8:20 PM 78.8 °F - 68.0 °F 69% 29.74 in - South 3.5 mph - N/A   Clear
8:50 PM 77.0 °F - 66.2 °F 69% 29.77 in - Calm Calm - N/A   Clear
9:00 PM 78 °F - 65 °F 56% 29.77 in 6 mi Calm Calm - -  
9:20 PM 77.0 °F - 66.2 °F 69% 29.77 in - Calm Calm - N/A   Clear
9:50 PM 77.0 °F - 66.2 °F 69% 29.77 in - Variable 3.5 mph - N/A   Clear
10:20 PM 77.0 °F - 66.2 °F 69% 29.77 in - Calm Calm - N/A   Clear
10:50 PM 75.2 °F - 66.2 °F 73% 29.74 in - Variable 2.3 mph - N/A   Clear
11:20 PM 75.2 °F - 66.2 °F 73% 29.74 in - Variable 1.2 mph - N/A   Clear
11:50 PM 75.2 °F - 64.4 °F 69% 29.74 in - SSW 4.6 mph - N/A   Clear